BRISAT

Last updated on Nov. 19, 2019, 4:25 a.m. UTC

1 41591U 16039A   19321.88778475 -.00000191  00000-0  00000-0 0  9991
2 41591   0.0169 291.7608 0002242 306.2669 288.7548  1.00269831 12525
UTC
Height (km)
Latitude
Longitude
Inclination
Orbital Period
UTC large
Height (km)
Speed (km/s)
/
Latitude / Longitude
Inclination (degrees)
Orbital Period (minutes)
Azimuth
Elevation
Range (km)
Doppler Factor
iOS Compass Heading
iOS Angle

Next 30 passes for location: Hong Kong

Rise time Rise Azimuth (degrees) Set time Set Azimuth (degrees) Duration Max altitude (degrees)

No matching passes for this satellites